Location: Newark
(49.8969°N, 3.3422°E)
Time: 15:19:42
(UTC+00:00)

deb Explorer IX - Pass Details

Date: 28 January 2020
Orbit: 549 x 1099 km, 38.8° (Epoch: 17 February)

Event Time Altitude Azimuth Distance (km) Brightness Sun altitude
Rises 20:02:17 0° 217° (SW) 3,595 ? -33.4°
Reaches altitude 10° 20:05:24 10° 203° (SSW) 2,738 ? -33.9°
Enters shadow 20:06:11 13° 198° (SSW) 2,560 ? -34.0°
Maximum altitude 20:10:20 22° 155° (SSE) 2,099 - -34.7°
Drops below altitude 10° 20:15:34 10° 109° (ESE) 2,925 - -35.5°
Sets 20:19:01 0° 95° (E) 3,906 - -36.0°
